RH
70 70 72 78 83 80 89 90 94 95 94 88 80 78 72 72 73 77 78 70 70 67 63 58 64 69 59 58 55 55 56 58 78 68 66 69 75 70 66 67 65 60 53
70 75 82 80 89 87 93 95 92 93 92 82 82 72 70 72 74 81 76 68 66 65 61 64 62 58 74 69 57 71 67 76 80 87 78 80 82 78 77 78 69 54 55
69 74 81 87 94 91 92 88 84 83 87 74 71 71 72 75 78 75 79 69 66 61 60 62 61 69 75 67 73 74 79 76 84 98 96 81 76 77 82 80 79 77 67
71 76 81 89 92 94 92 84 83 79 77 76 70 70 75 73 70 69 68 68 66 57 61 61 61 70 77 80 76 86 84 89 95 98 98 98 92 78 83 84 83 78 75
76 78 82 88 88 86 85 81 75 80 79 69 67 72 72 65 54 67 68 73 68 66 60 55 56 74 84 83 86 90 91 94 98 98 98 97 90 93 97 90 96 81 82
79 84 85 89 90 92 87 85 83 81 73 68 72 69 69 54 78 88 79 68 64 64 63 60 68 71 71 84 85 86 87 98 98 99 99 98 96 93 92 98 99 99 98
83 83 87 90 91 88 86 84 81 75 71 73 72 72 70 67 89 92 79 60 63 61 62 67 66 53 74 75 77 81 77 85 90 98 99 97 97 94 95 98 97 97 96
86 87 87 88 87 84 86 81 77 73 74 72 75 76 76 68 91 92 81 67 63 58 59 68 72 71 72 76 74 75 82 93 93 91 95 97 96 91 96 97 95 96 97
82 84 85 85 84 82 82 80 76 74 75 75 74 78 78 73 94 87 82 64 54 58 57 68 72 71 79 85 77 86 91 88 82 86 92 92 97 97 97 99 99 99 98
78 80 84 84 81 80 79 81 78 74 74 64 74 73 84 76 88 90 72 43 52 48 60 65 76 76 88 87 75 83 93 93 96 94 94 93 95 98 97 97 96 99 98
78 81 83 83 82 79 81 80 78 76 75 78 75 78 78 79 80 86 86 51 45 45 46 52 52 82 87 88 88 66 83 89 93 97 97 96 96 97 99 98 94 98 99
80 82 82 82 72 72 80 78 77 79 81 81 80 74 68 75 83 82 84 82 76 58 60 52 56 83 84 84 63 82 83 76 75 98 97 98 98 98 99 99 98 98 99
91 88 84 81 76 76 78 79 70 77 65 69 70 72 65 61 51 80 84 85 80 53 52 64 78 77 73 59 72 76 68 58 61 90 98 99 99 98 96 96 97 97 95
87 88 86 83 84 78 71 66 61 62 73 86 71 80 64 53 48 48 47 46 66 50 59 42 51 58 65 62 54 50 50 52 54 57 88 96 97 97 98 98 98 98 97
84 83 83 87 91 87 91 72 63 74 82 67 60 61 59 48 46 66 62 47 45 58 53 35 32 33 37 42 47 50 50 49 50 50 52 59 74 95 93 96 97 97 98
84 81 87 96 83 91 88 91 99 99 100 100 100 79 51 69 83 86 88 86 81 75 37 32 32 33 38 41 45 48 48 53 52 50 48 54 54 49 56 66 81 90 96
88 80 76 88 90 93 97 94 91 98 97 99 96 83 67 75 88 89 85 82 76 57 31 31 34 35 39 39 42 47 50 53 58 47 48 49 47 50 48 49 52 44 47
86 99 73 73 78 89 78 84 89 68 63 57 85 64 88 87 87 88 84 75 41 40 33 34 39 41 42 42 43 48 50 52 50 45 44 46 45 41 43 48 48 50 41
80 73 73 70 69 74 82 76 64 64 60 51 48 62 78 91 90 87 81 43 40 36 34 34 38 45 46 44 48 53 56 52 52 45 42 42 41 40 42 40 43 58 54
85 94 87 72 70 67 65 67 70 70 65 50 44 43 45 53 55 70 58 48 42 37 35 33 32 37 48 55 52 51 49 50 50 46 46 42 39 38 35 35 36 38 37
68 78 88 69 64 65 66 64 69 68 61 50 47 46 64 52 67 49 48 48 42 39 37 34 26 30 36 44 52 54 50 50 51 51 50 47 46 40 40 38 36 35 37
64 64 75 62 59 61 64 68 68 63 58 52 46 57 87 60 55 47 50 46 43 43 37 39 32 30 36 43 50 48 47 51 54 54 53 46 44 45 43 41 37 36 36
56 58 59 61 60 76 63 64 62 60 53 59 63 72 88 80 57 44 46 44 44 42 38 35 32 28 35 41 45 52 47 53 55 55 52 45 42 44 41 41 40 39 40
57 57 59 58 56 56 61 64 62 69 62 65 80 90 72 59 42 45 43 44 44 40 36 34 33 34 38 38 42 43 51 58 54 50 54 48 45 49 42 42 40 43 39
55 58 60 64 62 57 61 57 61 59 58 74 79 74 47 40 42 44 45 44 41 38 36 31 29 34 41 48 50 51 82 94 70 85 46 48 50 51 46 41 43 40 43
54 55 53 53 54 55 54 60 56 49 48 65 58 44 38 39 40 43 43 41 38 36 35 31 32 35 36 38 54 84 92 93 73 92 50 43 44 43 41 43 44 38 42
Wind_Speed
18 18 15 13 12 12 10 10 8 6 11 8 8 6 5 5 4 3 3 2 4 6 7 8 11 11 9 9 10 11 12 13 17 15 14 14 20 19 16 14 14 16 16
15 13 13 12 11 14 14 12 10 7 6 10 9 7 6 6 5 5 5 4 5 7 9 10 11 10 12 11 10 14 15 15 16 25 18 13 16 16 17 16 12 16 15
14 14 13 14 12 15 15 15 14 11 9 10 8 8 7 7 6 6 4 5 6 7 8 10 12 13 13 12 14 14 13 14 15 16 16 15 15 12 11 12 12 14 12
14 14 14 15 14 12 14 13 14 12 11 10 10 8 9 8 7 6 7 6 7 7 8 10 11 12 13 14 15 16 16 17 16 14 14 15 13 12 9 9 9 9 12
14 14 13 14 14 14 13 13 11 9 9 9 9 9 9 8 7 8 7 6 6 8 10 10 11 14 18 16 12 15 19 17 15 14 14 13 13 11 10 6 9 9 9
12 11 12 12 11 11 11 12 12 10 9 10 10 10 9 7 7 8 7 6 6 8 9 11 12 13 13 19 20 26 23 18 18 13 12 14 14 12 9 7 7 5 5
10 10 10 10 11 12 11 10 10 11 11 10 10 10 9 8 8 8 7 5 7 8 9 10 10 10 14 15 21 24 23 26 23 16 15 16 18 12 10 8 8 7 7
7 7 8 10 11 12 10 11 10 10 10 10 10 10 7 6 7 8 5 5 6 8 9 10 10 12 12 17 18 18 20 19 15 15 17 19 18 12 10 8 7 6 4
7 7 8 9 12 13 13 12 9 9 10 9 8 8 7 5 7 7 3 5 6 8 8 9 9 10 15 18 16 17 18 18 20 29 26 28 15 6 6 4 4 4 3
6 6 8 10 12 13 11 10 9 8 8 6 7 6 4 4 7 5 1 4 6 7 8 8 4 11 15 16 13 14 14 17 19 22 17 20 15 2 5 4 3 3 3
6 6 7 10 11 10 10 9 9 8 7 6 6 5 4 4 6 5 2 4 5 6 6 7 7 12 13 15 11 13 14 17 19 15 13 14 13 12 1 2 1 2 3
6 8 6 9 8 7 8 7 8 8 7 7 6 5 4 5 4 6 2 2 2 5 5 5 6 12 13 12 12 17 16 15 12 12 13 15 15 15 11 10 10 8 6
12 8 5 8 8 8 8 8 7 7 5 6 5 4 4 5 4 4 2 1 3 4 5 6 8 9 10 8 15 13 14 11 11 11 11 12 12 13 14 14 10 8 12
8 7 5 6 6 6 5 6 6 6 5 4 4 4 5 5 4 3 2 2 2 2 3 4 5 5 6 8 9 12 10 10 10 10 8 8 10 12 13 10 10 9 12
7 6 6 6 6 6 5 1 3 4 2 3 4 4 6 6 5 6 5 5 5 4 5 5 8 8 8 9 9 10 10 10 10 10 10 9 9 7 8 9 11 9 11
7 4 5 5 5 6 6 5 11 6 5 5 5 3 5 11 11 8 8 8 7 7 5 7 7 7 9 9 9 9 9 11 10 10 10 9 9 11 9 8 7 8 10
6 5 4 4 5 7 6 5 5 3 12 7 6 10 8 13 10 11 12 12 8 3 7 6 7 7 8 8 8 8 9 9 10 9 10 10 10 10 11 11 10 11 11
6 5 4 5 6 5 5 5 3 5 6 7 7 7 10 11 10 9 9 7 5 7 7 7 7 7 7 7 7 8 8 8 9 9 10 10 10 10 9 10 11 11 9
3 4 3 4 4 5 4 5 5 5 6 9 9 6 7 8 9 8 3 5 6 7 6 6 6 6 6 6 6 7 7 8 8 9 9 10 10 9 9 10 9 9 9
3 3 3 4 5 4 5 5 5 5 8 10 10 9 9 8 6 3 4 5 6 5 5 6 5 5 5 6 6 6 6 8 8 9 9 9 9 9 10 10 10 10 10
2 4 2 3 4 4 5 6 6 7 8 10 9 9 8 6 5 5 5 6 5 5 5 5 5 5 5 5 6 6 7 7 7 8 8 8 8 8 8 8 8 9 9
3 3 4 4 4 5 5 5 6 7 8 10 9 7 9 5 5 4 7 6 6 5 5 4 5 5 6 6 6 6 6 6 7 7 7 7 7 7 7 8 8 8 10
3 4 5 4 4 5 5 6 6 8 10 10 8 7 4 4 5 6 7 7 6 5 4 4 5 5 5 5 6 6 6 6 6 7 7 7 7 7 6 7 8 8 9
3 3 3 4 4 4 5 6 7 7 9 9 9 7 6 5 7 8 7 7 6 5 4 5 5 7 6 6 5 5 6 7 6 6 8 7 7 7 7 7 7 10 8
4 4 4 4 4 4 6 6 8 9 9 7 7 5 7 8 8 8 8 7 6 5 5 4 4 5 7 9 10 10 8 6 8 10 5 6 7 8 7 7 7 7 9
4 4 4 4 4 4 5 7 8 9 11 7 8 8 8 8 8 8 8 7 6 5 5 4 5 6 6 7 9 9 6 7 8 8 7 6 6 7 5 7 8 6 8
Wind_Direction
204 213 210 207 190 197 163 150 152 174 179 207 225 211 209 216 211 210 234 261 262 293 300 315 316 313 303 306 306 300 301 304 292 288 283 276 281 272 269 266 265 269 266
208 211 208 193 172 184 180 166 166 194 191 205 204 210 215 222 207 211 221 220 274 295 313 318 319 316 308 309 308 306 305 294 285 289 289 280 271 269 261 257 256 262 269
206 206 205 197 181 192 186 181 174 183 204 207 205 209 215 214 211 218 215 238 270 289 304 311 315 317 310 309 307 301 292 294 292 292 293 294 281 273 251 247 241 247 253
204 205 206 200 188 187 184 197 178 182 193 199 201 205 214 210 211 215 223 242 266 294 308 312 313 314 305 305 303 299 298 304 299 292 287 288 289 283 260 247 244 236 248
200 206 206 195 193 191 187 191 184 184 191 191 195 203 201 205 206 216 224 242 274 300 311 316 319 317 305 297 302 304 306 304 302 297 295 289 282 281 250 235 235 243 240
196 200 203 197 191 180 179 186 185 188 187 190 197 199 198 212 177 199 222 253 288 297 316 320 316 308 319 310 307 306 304 301 299 298 291 285 279 267 259 226 219 232 253
194 193 190 182 175 175 166 175 179 183 182 190 196 197 206 213 182 199 207 264 294 310 316 309 313 322 324 325 319 317 317 318 307 308 298 291 286 262 252 224 209 219 235
193 176 178 180 172 163 168 176 179 181 185 191 193 198 205 210 180 191 198 266 294 312 311 305 314 325 339 332 325 326 331 324 323 321 310 303 280 239 227 219 211 231 255
177 177 178 176 170 164 174 176 181 178 185 188 182 186 204 197 179 171 249 292 318 321 312 306 327 338 345 331 330 338 330 329 334 333 331 337 348 192 179 153 198 208 272
165 163 167 174 178 176 174 169 175 183 178 174 169 173 152 179 166 131 317 310 324 321 313 328 342 358 330 331 342 345 336 335 333 336 345 1 4 22 164 178 196 216 262
138 155 177 180 188 172 159 164 170 170 158 172 163 153 155 164 143 109 87 314 325 318 327 343 344 352 328 320 335 360 332 321 338 342 354 1 14 11 333 243 262 281 294
148 152 188 190 181 163 156 159 164 167 167 165 175 163 143 140 79 109 121 295 281 319 335 345 339 334 322 313 357 337 335 353 355 357 2 8 12 9 14 34 47 44 41
162 130 171 194 174 157 161 165 166 169 179 191 189 190 179 165 143 121 112 301 58 347 357 351 308 310 320 350 356 345 360 7 8 10 7 9 8 4 9 21 21 36 54
92 121 137 178 155 146 157 174 175 176 191 195 171 206 183 159 147 145 88 51 66 345 3 19 357 334 3 345 357 8 8 9 7 13 7 8 12 14 13 7 16 14 48
82 94 128 141 139 134 80 50 167 84 336 195 209 200 182 163 123 79 47 47 23 34 335 18 16 9 16 13 12 8 5 4 7 8 16 12 22 21 7 5 27 17 38
86 103 132 134 144 135 139 119 52 40 353 296 297 259 105 101 116 129 110 83 54 353 44 28 24 7 18 12 6 4 8 3 5 5 12 14 18 15 23 15 38 42 39
92 103 118 133 157 159 150 146 154 78 72 71 138 113 121 127 136 126 108 88 45 14 48 39 22 15 14 11 6 2 2 0 358 10 14 16 12 18 20 28 17 30 33
92 98 149 166 162 162 159 155 150 180 150 126 64 112 112 134 141 139 140 166 80 61 50 37 30 12 15 7 8 5 1 8 2 10 16 19 17 16 27 24 32 18 33
124 123 146 128 154 150 170 177 185 173 158 145 136 126 109 104 112 113 166 70 63 55 46 44 31 21 14 11 7 3 1 8 6 9 15 17 15 20 27 25 23 32 15
104 128 175 164 143 169 172 178 176 173 165 162 163 154 150 163 137 105 109 94 76 63 46 41 40 27 20 10 11 8 4 13 14 15 18 17 17 21 21 19 28 25 23
182 168 159 177 194 188 196 185 175 176 172 165 161 163 152 145 138 151 117 102 88 73 53 36 32 30 24 27 19 13 8 11 13 11 13 14 13 20 21 24 28 28 34
191 145 156 194 167 169 153 150 155 158 159 160 157 133 139 128 137 136 118 110 99 79 61 46 37 32 25 17 12 7 14 11 10 6 6 6 13 20 16 22 26 28 30
139 142 156 157 153 132 145 134 140 151 151 141 136 137 144 144 152 135 121 117 110 100 76 49 41 41 36 27 20 6 3 6 360 357 355 357 12 4 14 22 27 32 31
152 147 146 127 136 135 133 139 138 131 137 139 136 141 152 157 146 123 123 126 122 106 88 70 53 40 32 30 32 27 20 360 342 352 352 356 7 3 15 23 31 29 29
132 121 120 135 145 133 146 144 139 145 140 132 134 138 162 139 130 135 135 135 127 117 94 78 68 65 53 43 38 32 26 338 359 321 355 5 14 15 22 31 26 35 33
122 114 117 119 130 144 148 127 139 149 144 140 144 154 152 141 139 143 139 136 131 118 108 89 76 59 49 51 44 27 8 358 4 332 333 20 19 26 19 30 31 36 38